BCS4127 LOWL-EDDP

Flight info

Callsign BCS4127
Flight time 0h 44m
Altitude 30000
Route LIDSI DCT LAMSI L604 MOOCE/N0422F240 L604 ANELA M726 LASGA T953 VOCIM/N0462F290 T954 GOXLI GOXLI1V
Aircraft B738/M-SDE2E3FGHIRWXY/LB1

Departure

Time 2026-04-23 07:32
Airport Linz-Hörsching Airport (LOWL)

Arrival

Time 2026-04-23 08:17
Airport Leipzig/Halle Airport (EDDP)
Time Latitude Longitude Altitude Speed Heading
2026-04-23 07:29 48.23481 14.19756 972 ft 0 kts 158°
2026-04-23 07:29 48.23469 14.19763 976 ft 6 kts 158°
2026-04-23 07:30 48.23394 14.19816 973 ft 15 kts 135°
2026-04-23 07:30 48.23361 14.19959 973 ft 15 kts 88°
2026-04-23 07:30 48.23369 14.20109 975 ft 14 kts 86°
2026-04-23 07:30 48.23373 14.20256 972 ft 15 kts 88°
2026-04-23 07:31 48.23377 14.20413 971 ft 15 kts 88°
2026-04-23 07:31 48.23376 14.20534 973 ft 7 kts 17°
2026-04-23 07:31 48.23383 14.20502 978 ft 5 kts 249°
2026-04-23 07:31 48.23379 14.20431 965 ft 18 kts 266°
2026-04-23 07:32 48.23360 14.19875 979 ft 89 kts 267°
2026-04-23 07:32 48.23315 14.18631 980 ft 148 kts 268°
2026-04-23 07:32 48.23236 14.16888 1263 ft 176 kts 265°
2026-04-23 07:32 48.23172 14.15074 2253 ft 167 kts 268°
2026-04-23 07:33 48.23116 14.13402 3336 ft 160 kts 269°
2026-04-23 07:33 48.23060 14.11585 3795 ft 191 kts 269°
2026-04-23 07:33 48.23124 14.09487 4056 ft 214 kts 290°
2026-04-23 07:33 48.24061 14.07727 4606 ft 223 kts 316°
2026-04-23 07:34 48.25230 14.06155 5280 ft 227 kts 317°
2026-04-23 07:34 48.26418 14.04524 5824 ft 239 kts 315°
2026-04-23 07:34 48.27547 14.02575 6401 ft 254 kts 310°
2026-04-23 07:34 48.28654 14.00490 7289 ft 257 kts 310°
2026-04-23 07:35 48.29769 13.98374 8137 ft 260 kts 311°
2026-04-23 07:35 48.30908 13.96225 8962 ft 265 kts 312°
2026-04-23 07:35 48.32072 13.94043 9811 ft 270 kts 313°
2026-04-23 07:35 48.33261 13.91830 10468 ft 281 kts 314°
2026-04-23 07:36 48.34555 13.89441 10659 ft 307 kts 314°
2026-04-23 07:36 48.35958 13.86855 10826 ft 331 kts 313°
2026-04-23 07:36 48.37453 13.84092 11117 ft 349 kts 313°
2026-04-23 07:36 48.39001 13.81223 11710 ft 356 kts 313°
2026-04-23 07:37 48.40569 13.78312 12454 ft 360 kts 313°
2026-04-23 07:37 48.42154 13.75369 13183 ft 365 kts 313°
2026-04-23 07:37 48.43766 13.72378 13929 ft 370 kts 313°
2026-04-23 07:37 48.45401 13.69345 14627 ft 375 kts 314°
2026-04-23 07:38 48.47051 13.66280 15356 ft 378 kts 314°
2026-04-23 07:38 48.48710 13.63194 16109 ft 381 kts 314°
2026-04-23 07:38 48.50388 13.60070 16824 ft 385 kts 314°
2026-04-23 07:38 48.52085 13.56909 17522 ft 390 kts 314°
2026-04-23 07:39 48.53796 13.53719 18195 ft 395 kts 314°
2026-04-23 07:39 48.55534 13.50479 18836 ft 398 kts 314°
2026-04-23 07:39 48.57310 13.47245 19414 ft 402 kts 314°
2026-04-23 07:39 48.59124 13.43992 19954 ft 407 kts 315°
2026-04-23 07:40 48.60961 13.40703 20492 ft 412 kts 315°
2026-04-23 07:40 48.62816 13.37370 21035 ft 417 kts 314°
2026-04-23 07:40 48.64690 13.33992 21565 ft 421 kts 314°
2026-04-23 07:40 48.66574 13.30581 22073 ft 425 kts 314°
2026-04-23 07:41 48.68479 13.27125 22565 ft 430 kts 314°
2026-04-23 07:41 48.70400 13.23632 23063 ft 434 kts 314°
2026-04-23 07:41 48.72342 13.20097 23549 ft 438 kts 314°
2026-04-23 07:41 48.74300 13.16527 23997 ft 443 kts 314°
2026-04-23 07:42 48.76279 13.12919 24368 ft 447 kts 314°
2026-04-23 07:42 48.78270 13.09282 24776 ft 450 kts 314°
2026-04-23 07:42 48.80268 13.05626 25229 ft 451 kts 314°
2026-04-23 07:42 48.82277 13.01946 25635 ft 454 kts 314°
2026-04-23 07:43 48.84298 12.98239 25996 ft 457 kts 314°
2026-04-23 07:43 48.86328 12.94510 26352 ft 460 kts 314°
2026-04-23 07:43 48.88372 12.90741 26693 ft 464 kts 314°
2026-04-23 07:43 48.90567 12.87147 26937 ft 463 kts 323°
2026-04-23 07:44 48.93247 12.84518 27207 ft 456 kts 341°
2026-04-23 07:44 48.96235 12.83070 27604 ft 449 kts 352°
2026-04-23 07:44 48.99306 12.82270 27989 ft 448 kts 356°
2026-04-23 07:44 49.02402 12.81625 28324 ft 450 kts 356°
2026-04-23 07:45 49.05497 12.80929 28796 ft 449 kts 355°
2026-04-23 07:45 49.08530 12.79801 29398 ft 452 kts 346°
2026-04-23 07:45 49.11471 12.78092 29948 ft 452 kts 343°
2026-04-23 07:45 49.14340 12.76338 30367 ft 452 kts 343°
2026-04-23 07:46 49.17261 12.74559 30702 ft 452 kts 344°
2026-04-23 07:46 49.20188 12.72808 31074 ft 452 kts 344°
2026-04-23 07:46 49.21839 12.71832 31310 ft 451 kts 344°
2026-04-23 07:48 49.23701 12.70737 31577 ft 450 kts 345°
2026-04-23 07:48 49.26619 12.69024 31976 ft 449 kts 345°
2026-04-23 07:49 49.29531 12.67313 32337 ft 448 kts 345°
2026-04-23 07:49 49.35393 12.63860 32344 ft 451 kts 345°
2026-04-23 07:50 49.41215 12.60411 32334 ft 445 kts 345°
2026-04-23 07:50 49.47004 12.56979 32335 ft 449 kts 345°
2026-04-23 07:51 49.52857 12.53501 32334 ft 451 kts 344°
2026-04-23 07:51 49.58719 12.50005 32333 ft 452 kts 344°
2026-04-23 07:52 49.64575 12.46505 32340 ft 451 kts 344°
2026-04-23 07:52 49.70425 12.42999 32335 ft 451 kts 344°
2026-04-23 07:53 49.76273 12.39486 32307 ft 450 kts 344°
2026-04-23 07:53 49.82108 12.35972 32328 ft 450 kts 344°
2026-04-23 07:54 49.87937 12.32452 32317 ft 450 kts 344°
2026-04-23 07:54 49.93731 12.28945 32337 ft 450 kts 344°
2026-04-23 07:55 49.99669 12.26197 32333 ft 440 kts 359°
2026-04-23 07:55 50.05689 12.26658 32334 ft 430 kts 15°
2026-04-23 07:56 50.11422 12.29251 31795 ft 435 kts 21°
2026-04-23 07:56 50.14302 12.30679 31090 ft 432 kts 21°
2026-04-23 07:56 50.17171 12.32077 30277 ft 432 kts 20°
2026-04-23 07:56 50.20050 12.33452 29281 ft 433 kts 20°
2026-04-23 07:57 50.22935 12.34820 28327 ft 433 kts 20°
2026-04-23 07:57 50.25837 12.36046 27629 ft 429 kts 15°
2026-04-23 07:57 50.28744 12.36987 26683 ft 429 kts 14°
2026-04-23 07:57 50.31645 12.37873 26025 ft 422 kts 13°
2026-04-23 07:58 50.34515 12.38748 25319 ft 418 kts 13°
2026-04-23 07:58 50.37354 12.39629 24638 ft 414 kts 13°
2026-04-23 07:58 50.40166 12.40519 23956 ft 411 kts 13°
2026-04-23 07:58 50.42956 12.41409 23165 ft 408 kts 13°
2026-04-23 07:59 50.45725 12.42295 22451 ft 403 kts 13°
2026-04-23 07:59 50.48460 12.43171 21711 ft 400 kts 13°
2026-04-23 07:59 50.51171 12.44040 21015 ft 396 kts 13°
2026-04-23 07:59 50.53856 12.44901 20345 ft 392 kts 13°
2026-04-23 08:00 50.56516 12.45756 19697 ft 388 kts 13°
2026-04-23 08:00 50.59150 12.46603 19058 ft 385 kts 12°
2026-04-23 08:00 50.61767 12.47446 18373 ft 382 kts 12°
2026-04-23 08:00 50.64359 12.48281 17687 ft 379 kts 12°
2026-04-23 08:01 50.66925 12.49108 17047 ft 374 kts 12°
2026-04-23 08:01 50.69458 12.49927 16406 ft 370 kts 12°
2026-04-23 08:01 50.71127 12.50466 15997 ft 367 kts 12°
2026-04-23 08:01 50.73618 12.51272 15373 ft 364 kts 12°
2026-04-23 08:02 50.76085 12.52071 14757 ft 360 kts 12°
2026-04-23 08:02 50.78530 12.52864 14153 ft 357 kts 11°
2026-04-23 08:02 50.80953 12.53650 13494 ft 354 kts 11°
2026-04-23 08:02 50.83349 12.54429 12898 ft 349 kts 11°
2026-04-23 08:03 50.85715 12.55199 12320 ft 345 kts 11°
2026-04-23 08:03 50.88040 12.55956 11846 ft 337 kts 11°
2026-04-23 08:03 50.90326 12.56702 11339 ft 333 kts 10°
2026-04-23 08:03 50.92530 12.57421 11244 ft 318 kts 10°
2026-04-23 08:04 50.94674 12.58122 11096 ft 310 kts 10°
2026-04-23 08:04 50.96758 12.58803 10959 ft 302 kts 10°
2026-04-23 08:04 50.98800 12.59471 10845 ft 298 kts 10°
2026-04-23 08:04 51.00805 12.60128 10735 ft 288 kts 10°
2026-04-23 08:05 51.02730 12.60760 10615 ft 277 kts 10°
2026-04-23 08:05 51.04594 12.61371 10433 ft 271 kts 10°
2026-04-23 08:05 51.06440 12.61976 10217 ft 268 kts 10°
2026-04-23 08:05 51.08237 12.62567 10150 ft 259 kts
2026-04-23 08:06 51.09972 12.63138 10024 ft 252 kts
2026-04-23 08:06 51.11743 12.63719 9458 ft 262 kts
2026-04-23 08:06 51.13522 12.64305 9294 ft 256 kts
2026-04-23 08:06 51.15220 12.64867 9184 ft 243 kts
2026-04-23 08:07 51.16840 12.65401 9096 ft 232 kts
2026-04-23 08:07 51.18385 12.65912 8976 ft 223 kts
2026-04-23 08:07 51.19887 12.66407 8675 ft 220 kts
2026-04-23 08:07 51.21388 12.66902 8309 ft 220 kts
2026-04-23 08:08 51.22886 12.67396 7973 ft 219 kts
2026-04-23 08:08 51.24364 12.67883 7658 ft 222 kts
2026-04-23 08:08 51.25886 12.68388 7518 ft 219 kts
2026-04-23 08:08 51.27356 12.68875 7318 ft 218 kts
2026-04-23 08:09 51.28832 12.69364 7033 ft 216 kts
2026-04-23 08:09 51.30305 12.69851 6671 ft 217 kts
2026-04-23 08:09 51.31793 12.69786 6103 ft 218 kts 340°
2026-04-23 08:09 51.33149 12.68691 5575 ft 221 kts 327°
2026-04-23 08:10 51.34403 12.67186 5077 ft 230 kts 323°
2026-04-23 08:10 51.35674 12.65589 4632 ft 232 kts 323°
2026-04-23 08:10 51.38163 12.62506 3921 ft 221 kts 322°
2026-04-23 08:11 51.39373 12.61025 3559 ft 217 kts 322°
2026-04-23 08:11 51.40573 12.59561 3296 ft 216 kts 322°
2026-04-23 08:11 51.41748 12.58101 3116 ft 209 kts 317°
2026-04-23 08:11 51.42431 12.56160 3006 ft 201 kts 281°
2026-04-23 08:12 51.42471 12.54019 3007 ft 185 kts 277°
2026-04-23 08:12 51.42529 12.52061 2991 ft 167 kts 278°
2026-04-23 08:12 51.42535 12.50257 2992 ft 160 kts 275°
2026-04-23 08:12 51.42487 12.48469 3011 ft 162 kts 273°
2026-04-23 08:13 51.42407 12.46670 3007 ft 161 kts 273°
2026-04-23 08:13 51.42323 12.44883 2905 ft 161 kts 272°
2026-04-23 08:13 51.42238 12.43102 2686 ft 157 kts 273°
2026-04-23 08:13 51.42153 12.41399 2497 ft 150 kts 273°
2026-04-23 08:14 51.42074 12.39761 2296 ft 143 kts 273°
2026-04-23 08:14 51.42002 12.38284 2132 ft 124 kts 274°
2026-04-23 08:14 51.41938 12.36960 1942 ft 117 kts 274°
2026-04-23 08:14 51.41878 12.35648 1778 ft 119 kts 273°
2026-04-23 08:15 51.41815 12.34320 1621 ft 120 kts 273°
2026-04-23 08:15 51.41739 12.32965 1481 ft 123 kts 271°
2026-04-23 08:15 51.41657 12.31578 1274 ft 124 kts 271°
2026-04-23 08:15 51.41628 12.30219 1085 ft 122 kts 272°
2026-04-23 08:16 51.41565 12.28871 881 ft 124 kts 265°
2026-04-23 08:16 51.41479 12.27526 720 ft 119 kts 269°
2026-04-23 08:16 51.41430 12.26194 592 ft 122 kts 266°
2026-04-23 08:16 51.41363 12.24860 473 ft 113 kts 268°
2026-04-23 08:17 51.41320 12.23781 467 ft 76 kts 265°
2026-04-23 08:17 51.41293 12.23252 465 ft 20 kts 266°
2026-04-23 08:17 51.41280 12.23032 462 ft 19 kts 266°
2026-04-23 08:17 51.41267 12.22826 460 ft 19 kts 255°
2026-04-23 08:18 51.41215 12.22637 456 ft 19 kts 238°
2026-04-23 08:18 51.41143 12.22464 456 ft 18 kts 236°
2026-04-23 08:18 51.41128 12.22428 455 ft 1 kts 237°
2026-04-23 08:18 51.41119 12.22407 454 ft 3 kts 236°
2026-04-23 08:19 51.41103 12.22368 454 ft 6 kts 237°
2026-04-23 08:19 51.41053 12.22310 456 ft 12 kts 192°
2026-04-23 08:19 51.40994 12.22365 457 ft 11 kts 91°
2026-04-23 08:19 51.40996 12.22484 457 ft 11 kts 85°
2026-04-23 08:20 51.41001 12.22599 459 ft 10 kts 85°
2026-04-23 08:20 51.41007 12.22718 461 ft 12 kts 85°
2026-04-23 08:20 51.41013 12.22860 462 ft 14 kts 86°
2026-04-23 08:20 51.41020 12.23016 464 ft 14 kts 86°
2026-04-23 08:21 51.41027 12.23165 469 ft 13 kts 85°
2026-04-23 08:21 51.41033 12.23284 469 ft 5 kts 85°
2026-04-23 08:21 51.41033 12.23292 469 ft 1 kts 85°
2026-04-23 08:21 51.41039 12.23393 468 ft 15 kts 85°
2026-04-23 08:22 51.41046 12.23570 468 ft 16 kts 85°
2026-04-23 08:22 51.40975 12.23656 469 ft 15 kts 176°
2026-04-23 08:22 51.40861 12.23670 465 ft 17 kts 176°
2026-04-23 08:22 51.40776 12.23679 463 ft 6 kts 178°
2026-04-23 08:23 51.40766 12.23664 463 ft 2 kts 270°
2026-04-23 08:23 51.40765 12.23604 463 ft 8 kts 266°
2026-04-23 08:23 51.40764 12.23567 463 ft 1 kts 266°
2026-04-23 08:23 51.40764 12.23566 463 ft 0 kts 266°